Location: Litvinovka
(48.6667°N, 34.3500°E)
Time: 16:23:58
(UTC+00:00)

Cosmos 1833 Rocket - Pass Details

Date: 18 September 2020
Orbit: 831 x 841 km, 71.0° (Epoch: 21 October)

Event Time Altitude Azimuth Distance (km) Brightness Sun altitude
Rises 20:01:56 0° 326° (NW) 3,407 6.9 -35.9°
Reaches altitude 10° 20:04:31 10° 319° (NW) 2,468 5.9 -36.1°
Enters shadow 20:07:41 29° 294° (WNW) 1,514 4.3 -36.3°
